Regional Weather Roundup
Issued by NWS

Home | Current Version | Previous Version | Graphics & Text | Print | Product List | Glossary On
Versions: 1 2 3 4 5 6 7 8 9 10 11 12 13 14 15 16 17 18 19 20 21 22 23 24 25 26 27 28
000
ASUS45 KSLC 211010
RWRUT

UTAH REGIONAL WEATHER ROUNDUP
NATIONAL WEATHER SERVICE SALT LAKE CITY UT
400 AM MDT SAT OCT 21 2017

UTZ001>011-023>025-211100-

NORTHERN UTAH

CITY           SKY/WX    TMP DP  RH WIND       PRES   REMARKS
BRIGHAM CITY   CLEAR     32  24  71 N6        30.09R WCI  27
HILL AFB       CLOUDY    37  24  61 CALM      30.07R
LOGAN          CLOUDY    36  29  75 CALM      30.07R
OGDEN          MOCLDY    38  26  62 W3        30.07R
SALT LAKE CITY MOCLDY    42  30  62 SE5       30.08R
TOOELE VALLEY  PTCLDY    30  27  86 CALM      30.09R
WENDOVER       PTCLDY    37  22  54 E6        30.11R WCI  32
WEST JORDAN    CLOUDY    39  28  65 NW8       30.09R WCI  33

$$

UTZ011>015-024>027-211100-

CENTRAL/NORTHEAST UTAH

CITY           SKY/WX    TMP DP  RH WIND       PRES   REMARKS
PROVO AIRPORT  PTCLDY    40  28  62 W8        30.08R WCI  34
MOAB/CANYONLAN PTCLDY    42  15  33 W13       29.99R
DELTA          PTCLDY    27  18  69 S7        30.09R WCI  19
PRICE          MOCLDY    33  18  53 NW5       30.04R WCI  29
ROOSEVELT      CLEAR     37  16  41 NW3       30.04R
VERNAL         CLEAR     31  17  56 NW8       30.01R WCI  23

$$

UTZ013>016-019>022-027-211100-

SOUTHERN UTAH

CITY           SKY/WX    TMP DP  RH WIND       PRES   REMARKS
BRYCE CANYON   PTCLDY    23  15  71 NW9       30.05R WCI  13
CEDAR CITY     PTCLDY    25  16  68 NW5       30.05S WCI  19
MILFORD        MOCLDY    29  15  56 CALM      30.08R
ST GEORGE      MOSUNNY   49  16  26 SE8       29.99R
HANKSVILLE     MOCLDY    41  16  36 NW8       30.05R
BLANDING         N/A     39  18  43 NE3       30.04R

$$

REGIONAL REPORTS     COLORADO/ARIZONA

CITY           SKY/WX    TMP DP  RH WIND       PRES   REMARKS
CRAIG, CO      CLOUDY    31  24  75 SW6       30.01S WCI  25
GRAND JUNCTION CLEAR     36  16  44 N8        29.98R WCI  30
RIFLE, CO      CLEAR     37  30  75 W8        29.99S WCI  31
MONTROSE, CO   CLOUDY    45  14  28 W9        29.99R
CORTEZ, CO     MOCLDY    45  16  31 N13G22    29.97R
COLORADO CITY    N/A     45  18  33 NW3       30.03R
PAGE, AZ       CLEAR     51  18  27 W9        29.96R
GRAND CANYON   CLEAR     34  29  82 NE5       30.02R WCI  30
KINGMAN, AZ    CLEAR     49  17  28 E10       29.95R
FLAGSTAFF, AZ  CLEAR     36  34  92 CALM      30.03R

$$

REGIONAL REPORTS    NEVADA/IDAHO/WYOMING

CITY           SKY/WX    TMP DP  RH WIND       PRES   REMARKS
LAS VEGAS, NV  CLEAR     64  10  12 N10G23    29.97R
ELY, NY        MOCLDY    15   7  70 S9        30.13R WCI   3
ELKO, NV       MOCLDY    23  18  81 CALM      30.13R
POCATELLO, ID  CLEAR     34  29  82 SW12      30.05R WCI  25
BURLEY, ID     PTCLDY    36  29  75 SW14      30.06R WCI  27
FORT BRIDGER,    N/A     27  21  77 W13       30.06R WCI  17
EVANSTON, WY   CLOUDY    27  20  75 SW5       30.05R WCI  22
ROCK SPRINGS,  CLEAR     27  18  69 W20       29.99R WCI  13

$$




USA.gov is the U.S. government's official web portal to all federal, state and local government web resources and services.